Regional Weather Roundup
Issued by NWS

Home | Current Version | Previous Version | Text Only | Print | Product List | Glossary On
Versions: 1 2 3 4 5 6 7 8 9 10 11 12 13 14 15 16 17 18 19 20 21 22 23 24 25 26 27 28 29 30 31 32 33 34 35 36 37 38 39 40 41 42 43 44 45 46 47 48 49 50
000
ASUS45 KPSR 260310
RWRAZ

ARIZONA HOURLY REGIONAL WEATHER ROUNDUP
NATIONAL WEATHER SERVICE PHOENIX AZ
800 PM MST SAT FEB 25 2017

NOTE: FAIR INDICATES FEW OR NO CLOUDS BELOW 12,000 FEET WITH NO
SIGNIFICANT WEATHER AND/OR OBSTRUCTIONS TO VISIBILITY.

AZZ001>003-036-260400-
NORTHWEST ARIZONA

CITY           SKY/WX    TMP DP  RH WIND       PRES   REMARKS
BULLHEAD CITY  CLOUDY    61  27  27 CALM      29.94S
KINGMAN        CLOUDY    47   5  18 S13       29.96S
$$

AZZ004>008-015-016-018-260400-
NORTH CENTRAL ARIZONA

CITY           SKY/WX    TMP DP  RH WIND       PRES   REMARKS
GRAND CANYON   CLOUDY    33  14  45 SW5       29.94S WCI  29
WILLIAMS       CLOUDY    36   9  32 W13       29.97R WCI  27
PRESCOTT       CLOUDY    42  11  28 CALM      29.98R
FLAGSTAFF      CLOUDY    33   7  33 SW17      29.95R WCI  22
PAYSON         CLOUDY    41  18  38 CALM      30.00S
PAGE           CLOUDY    44   7  21 SW3       29.89S
$$

AZZ009>014-017-260400-
NORTHEAST ARIZONA

CITY           SKY/WX    TMP DP  RH WIND       PRES   REMARKS
WINSLOW        MOCLDY    44  14  29 SW14      29.93R
SAINT JOHNS    PTCLDY    42   2  18 SW20      29.90F
WINDOW ROCK    CLOUDY    36   7  29 W5        29.89F WCI  32
SHOW LOW       PTCLDY    34   5  29 S12       29.97F WCI  25
$$

AZZ023-260400-
GREATER PHOENIX AREA

CITY           SKY/WX    TMP DP  RH WIND       PRES   REMARKS
PHOENIX        CLOUDY    62  21  20 NW7       29.94S
BUCKEYE        CLOUDY    55  37  50 N6        29.96R
LUKE AFB       CLOUDY    58  33  39 CALM      29.94R
DEER VALLEY    CLOUDY    57  27  31 CALM      29.94F
SCOTTSDALE     CLOUDY    59  20  22 N3        29.96S
MESA-FALCON    PTCLDY   N/A N/A N/A S5        29.92F
MESA-GATEWAY   CLEAR     57  25  28 CALM      29.95F
CHANDLER       CLEAR     59  21  23 CALM      29.95F
$$

AZZ027-028-260400-
SOUTHWEST MARICOPA COUNTY AND PINAL COUNTY

CITY           SKY/WX    TMP DP  RH WIND       PRES   REMARKS
CASA GRANDE    NOT AVBL
$$

AZZ503-504-507>509-260400-
SOUTHEAST ARIZONA

CITY           SKY/WX    TMP DP  RH WIND       PRES   REMARKS
TUCSON         PTCLDY    57  14  18 NW6       29.99R
DAVIS-MONTHAN  CLEAR     54  15  21 NW5       29.97S
RYAN FIELD     CLEAR     54  12  19 SW6       29.99R
NOGALES        CLEAR     46  10  23 SE3       30.00S
SIERRA VISTA   CLEAR     47   4  17 W6        30.01S
DOUGLAS        CLEAR     43   8  23 CALM      29.99S
SAFFORD        CLEAR     51  11  20 NW13      29.94R
$$

AZZ020-021-025-026-031-260400-
SOUTHWEST ARIZONA

CITY           SKY/WX    TMP DP  RH WIND       PRES   REMARKS
YUMA           PTCLDY    64  24  21 SW5       29.93
$$

CAZ031-033-041-043-047-048-061-260400-
SOUTHERN CALIFORNIA

CITY           SKY/WX    TMP DP  RH WIND       PRES   REMARKS
DOWNTOWN L.A.  CLOUDY    57  46  66 VRB3      30.01S
L.A. AIRPORT   CLOUDY    54  47  77 W16       30.02R
SAN DIEGO      CLOUDY    57  44  62 W6        30.05F
BURBANK        CLOUDY    53  43  68 SW7       30.00R
ONTARIO        CLOUDY    53  41  63 SW12      29.98F
RIVERSIDE      CLOUDY    52  43  71 W7        30.00R
PALM SPRINGS   MOCLDY    62  36  37 VRB5      29.95S
EL CENTRO NAS  MOCLDY    64  30  27 SE3       29.96R
IMPERIAL       CLOUDY    65  34  31 S3        29.93R
BLYTHE         CLOUDY    60  37  42 NW5       29.93S
NEEDLES        CLOUDY    63  23  21 S7        29.94R
$$

NVZ020-UTZ003-260400-
SOUTHERN NEVADA-UTAH

CITY           SKY/WX    TMP DP  RH WIND       PRES   REMARKS
LAS VEGAS      CLOUDY    51  16  24 CALM      29.92F
SALT LAKE CITY PTCLDY    29  23  78 S6        29.99S WCI  23
$$

NMZ009-TXZ055-260400-
NEW MEXICO-WEST TEXAS

CITY           SKY/WX    TMP DP  RH WIND       PRES   REMARKS
ALBUQUERQUE    PTCLDY    46  -5  11 NW9       29.86F
EL PASO        PTCLDY    56   6  13 SE5       29.91S
$$


........................KEY........................
SKY/WX - SKY CONDITION/WEATHER
TMP    - TEMPERATURE IN FAHRENHEIT
DP     - DEW POINT IN FAHRENHEIT
RH     - RELATIVE HUMIDITY IN PERCENT
WIND   - DIRECTION AND SPEED IN MILES PER HOUR (MPH)
VRB    - VARIABLE WIND DIRECTION
PRES   - MEAN SEA LEVEL PRESSURE IN INCHES OF MERCURY
         F - FALLING PRESSURE   R - RISING PRESSURE
         S - STEADY PRESSURE
VSB    - VISIBILITY IN MILES
HX     - HEAT INDEX IN FAHRENHEIT
WCI    - WIND CHILL INDEX IN FAHRENHEIT
TC     - TEMPERATURE IN CELSIUS WHICH IS ALSO KNOWN AS
         TEMPERATURE IN CENTIGRADE
AFB    - AIR FORCE BASE
         LUKE AFB IS LUKE AIR FORCE BASE
         DAVIS-MONTHAN IS DAVIS-MONTHAN AIR FORCE BASE
NAS    - NAVAL AIR STATION
         EL CENTRO NAS IS EL CENTRO NAVAL AIR STATION
N/A    - NOT AVAILABLE




USA.gov is the U.S. government's official web portal to all federal, state and local government web resources and services.